GW4497 Weather Reports


Display with metric or nautical units.
time (UTC)temp
F
wind
direction
speed
MPH
gust
MPH
rain 1hr
in
rain 24hr
in
rain mn
in
humidity
%
barometer
mb
20260510075003 59 272 7.0 14.0 0.00 0.54 0.00 82 1012.2
20260510074503 59 269 7.0 15.0 0.00 0.54 0.00 82 1012.5
20260510074003 58 269 8.0 15.0 0.00 0.54 0.00 82 1012.6
20260510073503 58 270 7.0 15.0 0.00 0.54 0.00 82 1012.5
20260510073003 58 269 7.0 13.0 0.00 0.54 0.00 82 1012.6
20260510072503 58 269 7.0 13.0 0.00 0.54 0.00 82 1012.1
20260510072003 58 270 6.0 11.0 0.00 0.54 0.00 82 1012.5
20260510071503 58 275 5.0 11.0 0.00 0.54 0.00 82 1012.1
20260510071003 58 285 5.0 11.0 0.00 0.54 0.00 83 1012.2
20260510070717 58 289 4.0 9.0 0.00 0.54 0.00 84 1012.2
20260510070003 57 276 3.0 8.0 0.00 0.54 0.00 85 1012.0
20260510065503 57 267 3.0 7.0 0.00 0.54 0.00 87 1012.3
20260510065003 56 271 2.0 6.0 0.00 0.54 0.00 89 1012.2
20260510064503 56 346 1.0 3.0 0.00 0.54 0.00 90 1012.2
20260510064003 56 37 2.0 6.0 0.00 0.54 0.00 91 1012.1
20260510063503 55 85 2.0 6.0 0.00 0.54 0.00 92 1012.2
20260510063003 55 54 2.0 5.0 0.00 0.54 0.00 93 1012.2
20260510062503 55 347 3.0 5.0 0.00 0.54 0.00 93 1012.1
20260510062003 54 359 3.0 5.0 0.00 0.54 0.00 93 1012.0
20260510061503 54 32 2.0 4.0 0.00 0.54 0.00 94 1012.1
20260510061003 54 48 1.0 3.0 0.00 0.54 0.00 94 1012.1
20260510060503 54 155 1.0 3.0 0.00 0.54 0.00 94 1012.1
20260510060003 54 145 2.0 3.0 0.00 0.54 0.00 94 1012.1
20260510055717 53 144 2.0 3.0 0.00 0.54 0.00 94 1012.0
20260510055003 54 101 1.0 3.0 0.00 0.54 0.00 94 1012.0
20260510054503 53 25 1.0 3.0 0.00 0.54 0.00 94 1012.2
20260510054003 53 311 1.0 3.0 0.00 0.54 0.00 94 1012.0
20260510053503 53 309 1.0 3.0 0.00 0.54 0.00 94 1012.0
20260510053003 53 325 1.0 5.0 0.00 0.54 0.00 94 1012.1
20260510052716 53 328 2.0 5.0 0.00 0.54 0.00 94 1012.1
20260510052003 53 314 2.0 5.0 0.00 0.54 0.00 94 1012.2
20260510051503 53 326 2.0 5.0 0.00 0.54 0.00 94 1012.2
20260510051003 53 322 2.0 5.0 0.00 0.54 0.00 94 1012.2
20260510050503 53 311 2.0 7.0 0.00 0.54 0.00 94 1012.1
20260510050003 53 277 2.0 7.0 0.00 0.54 0.00 94 1012.1
20260510045503 53 242 2.0 5.0 0.00 0.54 0.00 94 1012.1
20260510045217 53 259 1.0 5.0 0.00 0.54 0.00 94 1012.0
20260510044503 53 217 1.0 4.0 0.00 0.54 0.00 94 1012.0
20260510044003 53 149 1.0 4.0 0.00 0.54 0.00 94 1011.9
20260510043503 53 147 2.0 4.0 0.00 0.54 0.00 94 1012.2
20260510043004 53 149 2.0 4.0 0.00 0.54 0.00 94 1012.3
20260510042503 53 136 2.0 4.0 0.00 0.54 0.00 94 1012.1
20260510042003 54 133 3.0 4.0 0.00 0.54 0.00 94 1012.1
20260510041503 53 151 2.0 4.0 0.00 0.54 0.00 94 1012.1
20260510041003 54 297 1.0 3.0 0.00 0.54 0.00 94 1012.1
20260510040503 54 312 1.0 4.0 0.00 0.54 0.00 94 1012.2
20260510040003 54 327 2.0 4.0 0.00 0.54 0.00 94 1012.0
20260510035503 54 33 1.0 4.0 0.00 0.54 0.00 94 1012.1
20260510035003 54 57 1.0 3.0 0.00 0.54 0.00 94 1012.3
20260510034503 54 312 1.0 4.0 0.00 0.54 0.00 94 1012.1
20260510034003 54 295 2.0 5.0 0.00 0.54 0.00 94 1012.5
20260510033503 54 311 3.0 6.0 0.00 0.54 0.00 94 1012.2
20260510033003 54 321 2.0 6.0 0.00 0.54 0.00 94 1012.3
20260510032718 54 321 2.0 6.0 0.00 0.54 0.00 94 1012.2
20260510032003 54 350 1.0 5.0 0.00 0.54 0.00 94 1012.3
20260510031718 54 31 1.0 5.0 0.00 0.54 0.00 94 1012.3
20260510031003 54 119 1.0 3.0 0.00 0.54 0.00 94 1012.2
20260510030503 54 139 1.0 3.0 0.00 0.54 0.00 94 1012.5
20260510030216 54 129 1.0 3.0 0.00 0.54 0.00 94 1012.3
20260510025717 54 67 1.0 4.0 0.00 0.54 0.00 94 1012.6
20260510025003 55 99 2.0 4.0 0.00 0.54 0.00 94 1012.6
20260510024503 55 122 2.0 4.0 0.00 0.54 0.00 94 1012.6
20260510024003 54 141 2.0 6.0 0.00 0.54 0.00 94 1012.7
20260510023503 54 149 2.0 6.0 0.00 0.54 0.00 94 1012.8
20260510023003 54 153 2.0 4.0 0.00 0.54 0.00 94 1012.8
20260510022503 54 162 2.0 4.0 0.00 0.54 0.00 94 1012.8
20260510022003 54 174 2.0 4.0 0.00 0.54 0.00 94 1012.8
20260510021503 54 141 2.0 4.0 0.00 0.54 0.00 94 1012.6
20260510021003 54 123 2.0 4.0 0.00 0.54 0.00 94 1012.7
20260510020503 54 130 2.0 4.0 0.00 0.54 0.00 94 1012.6
20260510020003 54 135 2.0 4.0 0.00 0.54 0.00 94 1012.6
20260510015717 53 140 2.0 4.0 0.00 0.54 0.00 94 1012.6
20260510015003 53 129 2.0 4.0 0.00 0.54 0.00 94 1012.5
20260510014717 53 118 2.0 4.0 0.00 0.54 0.00 94 1012.6
20260510014003 53 82 2.0 4.0 0.00 0.54 0.00 94 1012.5
20260510013503 53 94 3.0 6.0 0.00 0.54 0.00 93 1012.5
20260510013003 53 112 3.0 6.0 0.00 0.54 0.00 93 1012.5
20260510012503 53 130 3.0 5.0 0.00 0.54 0.00 93 1012.5
20260510012218 53 140 2.0 5.0 0.00 0.54 0.00 93 1012.7
20260510011503 53 135 1.0 3.0 0.00 0.54 0.00 93 1012.7
20260510011003 53 145 1.0 3.0 0.00 0.54 0.00 93 1012.7
20260510010503 53 143 1.0 3.0 0.00 0.54 0.00 93 1012.7
20260510010003 53 140 1.0 3.0 0.00 0.54 0.00 93 1012.7
20260510005504 53 140 1.0 3.0 0.00 0.54 0.00 93 1012.8
20260510005003 53 124 1.0 3.0 0.00 0.54 0.00 93 1012.7
20260510004717 53 126 1.0 3.0 0.00 0.54 0.00 93 1012.7
20260510004218 53 178 1.0 2.0 0.00 0.54 0.00 93 1012.9
20260510003503 53 167 1.0 3.0 0.00 0.54 0.00 93 1013.0
20260510003004 54 151 1.0 3.0 0.00 0.54 0.00 93 1012.9
20260510002503 54 138 1.0 3.0 0.00 0.54 0.00 93 1013.2
20260510002003 54 129 1.0 2.0 0.00 0.54 0.00 93 1013.1
20260510001503 55 110 1.0 2.0 0.00 0.54 0.00 93 1013.3
20260510001003 55 158 1.0 4.0 0.00 0.54 0.00 93 1013.3
20260510000503 55 141 2.0 4.0 0.00 0.54 0.00 93 1013.3
20260510000003 55 71 2.0 4.0 0.00 0.54 0.00 93 1013.4
20260509235503 55 56 2.0 5.0 0.00 0.54 0.00 93 1013.5
20260509235003 56 60 3.0 5.0 0.00 0.54 0.00 93 1013.3
20260509234503 56 77 2.0 5.0 0.00 0.54 0.00 93 1013.3
20260509234003 56 103 2.0 4.0 0.00 0.54 0.00 93 1013.7
20260509233503 56 128 2.0 4.0 0.00 0.54 0.00 93 1013.5
20260509233008 56 150 2.0 4.0 0.00 0.54 0.00 93 1013.8
20260509232503 56 136 2.0 4.0 0.00 0.54 0.00 93 1013.6
20260509232003 56 109 1.0 3.0 0.00 0.54 0.00 93 1013.6
20260509231503 56 75 2.0 4.0 0.00 0.54 0.00 93 1013.7
20260509231217 56 65 2.0 4.0 0.00 0.54 0.00 93 1013.7
20260509230503 56 75 2.0 4.0 0.00 0.54 0.00 92 1013.6
20260509230003 56 91 1.0 4.0 0.00 0.54 0.00 92 1013.6
20260509225503 56 96 1.0 4.0 0.00 0.54 0.00 92 1013.6
20260509225003 56 92 2.0 4.0 0.00 0.54 0.00 92 1013.8
20260509224503 56 101 2.0 4.0 0.00 0.54 0.00 92 1013.8
20260509224004 56 106 1.0 3.0 0.00 0.54 0.00 92 1013.7
20260509223503 56 91 1.0 3.0 0.00 0.54 0.00 92 1013.7
20260509223003 56 99 2.0 4.0 0.00 0.54 0.00 92 1013.7
20260509222503 56 117 2.0 4.0 0.00 0.54 0.00 92 1013.7
20260509222003 56 151 2.0 4.0 0.00 0.54 0.00 92 1013.7
20260509221503 56 189 1.0 3.0 0.00 0.54 0.00 92 1013.6
20260509221003 56 172 1.0 3.0 0.00 0.54 0.00 92 1013.7
20260509220503 56 108 2.0 4.0 0.00 0.54 0.00 92 1013.7
20260509220003 56 86 2.0 4.0 0.00 0.54 0.00 92 1013.5
20260509215503 56 129 1.0 2.0 0.00 0.54 0.54 92 1013.7
20260509215003 56 140 1.0 3.0 0.00 0.54 0.54 92 1013.7
20260509214503 56 112 1.0 4.0 0.00 0.54 0.54 92 1013.7
20260509214003 56 114 2.0 4.0 0.00 0.54 0.54 92 1013.6
20260509213503 56 110 3.0 6.0 0.00 0.54 0.54 91 1013.6
20260509213003 56 113 3.0 6.0 0.00 0.54 0.54 91 1013.6
20260509212503 56 134 1.0 5.0 0.00 0.54 0.54 91 1013.6
20260509212218 56 127 1.0 3.0 0.00 0.54 0.54 91 1013.5
20260509211503 56 22 1.0 3.0 0.00 0.54 0.54 91 1013.4
20260509211218 56 354 1.0 3.0 0.00 0.54 0.54 91 1013.7
20260509210503 56 190 1.0 3.0 0.00 0.54 0.54 91 1013.6
20260509210003 56 166 1.0 3.0 0.00 0.54 0.54 90 1013.6
20260509205503 56 137 2.0 5.0 0.00 0.54 0.54 90 1013.6
20260509205003 56 123 3.0 5.0 0.00 0.54 0.54 90 1013.5
20260509204503 57 118 2.0 5.0 0.00 0.54 0.54 90 1013.1
20260509204003 56 54 1.0 5.0 0.00 0.54 0.54 90 1013.1
20260509203503 56 339 2.0 5.0 0.00 0.54 0.54 90 1013.1
20260509203218 56 316 2.0 6.0 0.00 0.54 0.54 90 1013.0
20260509202503 56 297 3.0 8.0 0.00 0.54 0.54 90 1012.7
20260509202003 56 263 2.0 6.0 0.00 0.54 0.54 91 1012.9
20260509201503 56 56 2.0 4.0 0.00 0.54 0.54 91 1012.8
20260509201003 56 90 2.0 5.0 0.00 0.54 0.54 91 1012.5
20260509200503 56 124 3.0 6.0 0.00 0.54 0.54 91 1012.6
20260509200003 56 93 3.0 6.0 0.00 0.54 0.54 90 1012.6
20260509195503 56 14 1.0 3.0 0.00 0.54 0.54 90 1012.6
20260509195003 56 346 1.0 3.0 0.00 0.54 0.54 90 1012.3
20260509194717 56 340 1.0 3.0 0.00 0.54 0.54 90 1012.7
20260509194003 56 267 1.0 3.0 0.00 0.54 0.54 90 1012.3
20260509193717 56 218 1.0 4.0 0.00 0.54 0.54 90 1012.2
20260509193003 56 179 2.0 4.0 0.00 0.54 0.54 90 1012.0
20260509192717 56 174 2.0 4.0 0.00 0.54 0.54 90 1012.0
20260509192003 56 218 2.0 6.0 0.00 0.54 0.54 90 1011.9
20260509191503 56 203 2.0 4.0 0.00 0.54 0.54 90 1011.6
20260509191003 56 179 2.0 4.0 0.00 0.54 0.54 90 1011.5
20260509190503 56 203 1.0 3.0 0.00 0.54 0.54 90 1011.4
20260509190004 56 199 1.0 4.0 0.00 0.54 0.54 89 1011.1
20260509185503 57 169 2.0 4.0 0.00 0.54 0.54 89 1010.8
20260509185003 57 123 2.0 5.0 0.01 0.54 0.54 89 1010.8
20260509184503 57 125 3.0 7.0 0.01 0.54 0.54 88 1010.7
20260509184003 57 113 2.0 7.0 0.01 0.54 0.54 88 1010.7
20260509183503 57 104 2.0 4.0 0.01 0.54 0.54 88 1011.0
20260509183003 57 133 2.0 4.0 0.01 0.54 0.54 88 1011.1
20260509182503 57 167 2.0 4.0 0.01 0.54 0.54 88 1011.2
20260509182003 57 288 2.0 4.0 0.02 0.54 0.54 88 1011.0
20260509181503 57 331 2.0 9.0 0.02 0.54 0.54 88 1011.0
20260509181003 56 355 2.0 9.0 0.03 0.54 0.54 89 1010.6
20260509180503 56 52 2.0 4.0 0.04 0.54 0.54 90 1010.5
20260509180217 56 72 2.0 4.0 0.06 0.54 0.54 90 1010.4
20260509175503 56 256 2.0 4.0 0.09 0.54 0.54 90 1010.5
20260509175217 56 229 2.0 5.0 0.10 0.53 0.53 90 1010.3
20260509174503 57 194 2.0 5.0 0.13 0.53 0.53 91 1010.0
20260509174003 57 178 2.0 4.0 0.15 0.53 0.53 91 1009.9
20260509173503 57 117 2.0 4.0 0.16 0.53 0.53 91 1010.3
20260509173003 57 116 2.0 4.0 0.19 0.53 0.53 91 1010.4
20260509172503 57 137 2.0 4.0 0.20 0.52 0.52 91 1010.5
20260509172003 57 175 1.0 4.0 0.23 0.52 0.52 91 1010.5
20260509171503 58 292 1.0 3.0 0.26 0.52 0.52 91 1010.5
20260509171003 58 37 1.0 3.0 0.29 0.51 0.51 91 1010.9
20260509170504 58 63 1.0 3.0 0.30 0.49 0.49 91 1011.3
20260509170003 58 111 1.0 4.0 0.29 0.47 0.47 91 1011.8
20260509165718 58 145 2.0 4.0 0.29 0.46 0.46 91 1011.6
20260509165003 58 158 1.0 4.0 0.28 0.43 0.43 91 1012.2
20260509164503 58 78 1.0 2.0 0.27 0.41 0.41 90 1012.2
20260509164003 58 68 1.0 2.0 0.26 0.38 0.38 90 1012.1
20260509163503 58 84 1.0 2.0 0.24 0.37 0.37 90 1012.3
20260509163216 58 99 1.0 5.0 0.23 0.35 0.35 90 1012.6
20260509162503 58 158 3.0 6.0 0.21 0.32 0.32 90 1013.0
20260509162216 58 162 4.0 7.0 0.19 0.30 0.31 90 1013.1
20260509161503 58 157 5.0 11.0 0.15 0.26 0.26 90 1013.1
20260509161003 58 163 6.0 12.0 0.12 0.22 0.22 90 1013.2
20260509160503 59 207 5.0 12.0 0.11 0.20 0.20 89 1013.6
20260509160003 59 229 5.0 10.0 0.11 0.18 0.18 89 1013.7
20260509155717 59 231 5.0 9.0 0.11 0.17 0.17 89 1013.3
20260509155003 59 226 4.0 7.0 0.09 0.14 0.14 89 1012.8
20260509154503 59 184 4.0 9.0 0.09 0.13 0.13 88 1012.3
20260509154218 59 169 4.0 9.0 0.08 0.13 0.13 88 1012.2
20260509153717 59 159 4.0 9.0 0.07 0.12 0.12 88 1012.1
20260509153003 59 147 3.0 7.0 0.07 0.12 0.12 88 1011.5
20260509152503 59 147 2.0 5.0 0.07 0.11 0.11 88 1011.1
20260509152218 59 142 3.0 5.0 0.07 0.11 0.11 88 1010.9
20260509151717 59 157 3.0 5.0 0.08 0.11 0.11 88 1010.5
20260509151003 59 175 2.0 5.0 0.08 0.10 0.10 88 1010.0
20260509150503 59 143 3.0 5.0 0.08 0.08 0.08 87 1010.3
20260509150003 59 131 2.0 5.0 0.07 0.07 0.07 87 1010.5
20260509145503 59 79 2.0 6.0 0.06 0.06 0.06 87 1010.6
20260509145003 59 42 3.0 6.0 0.05 0.05 0.05 87 1010.6
20260509144503 59 56 3.0 6.0 0.05 0.05 0.05 86 1011.0
20260509144003 60 96 3.0 6.0 0.05 0.05 0.05 86 1011.8
20260509143503 60 95 3.0 6.0 0.04 0.04 0.04 86 1012.1
20260509143218 60 87 3.0 8.0 0.04 0.04 0.04 85 1012.6
20260509142503 60 95 4.0 8.0 0.04 0.04 0.04 84 1013.1
20260509142003 61 110 4.0 7.0 0.03 0.03 0.03 82 1013.2
20260509141503 62 123 4.0 8.0 0.03 0.03 0.03 78 1013.4
20260509141003 63 122 4.0 8.0 0.02 0.02 0.02 74 1013.2
20260509140503 64 138 4.0 7.0 0.00 0.00 0.00 68 1013.4
20260509140003 64 149 5.0 7.0 0.00 0.00 0.00 66 1013.3
20260509135717 64 150 5.0 7.0 0.00 0.00 0.00 66 1013.5
20260509135003 64 135 3.0 6.0 0.00 0.00 0.00 65 1013.3
20260509134503 65 119 2.0 5.0 0.00 0.00 0.00 63 1013.0
20260509134004 65 115 2.0 6.0 0.00 0.00 0.00 63 1012.8
20260509133503 64 89 3.0 9.0 0.00 0.00 0.00 64 1012.5
20260509133217 64 80 3.0 9.0 0.00 0.00 0.00 63 1012.5
20260509132503 65 85 3.0 10.0 0.00 0.00 0.00 64 1012.0
20260509132221 64 78 4.0 10.0 0.00 0.00 0.00 65 1012.0
20260509131503 64 99 5.0 13.0 0.00 0.00 0.00 65 1011.8
20260509131003 64 98 6.0 16.0 0.00 0.00 0.00 65 1011.8
20260509130503 64 102 7.0 16.0 0.00 0.00 0.00 65 1012.1
20260509130003 64 102 7.0 14.0 0.00 0.00 0.00 65 1012.1
20260509125503 64 102 6.0 11.0 0.00 0.00 0.00 65 1012.2
20260509125003 65 104 6.0 12.0 0.00 0.00 0.00 65 1011.9
20260509124503 65 90 5.0 12.0 0.00 0.00 0.00 65 1012.2
20260509124003 64 79 4.0 9.0 0.00 0.00 0.00 65 1012.0
20260509123503 65 98 4.0 11.0 0.00 0.00 0.00 66 1012.5
20260509123003 65 92 5.0 11.0 0.00 0.00 0.00 66 1012.6
20260509122503 65 85 6.0 13.0 0.00 0.00 0.00 66 1012.8
20260509122003 65 93 6.0 13.0 0.00 0.00 0.00 66 1012.8
20260509121718 65 95 6.0 13.0 0.00 0.00 0.00 65 1013.0
20260509121003 65 97 5.0 11.0 0.00 0.00 0.00 64 1013.1
20260509120503 65 100 6.0 11.0 0.00 0.00 0.00 65 1013.2
20260509120003 64 101 6.0 13.0 0.00 0.00 0.00 65 1013.3
20260509115503 65 106 6.0 13.0 0.00 0.00 0.00 65 1013.7
20260509115003 65 108 6.0 13.0 0.00 0.00 0.00 64 1013.7
20260509114503 65 104 7.0 16.0 0.00 0.00 0.00 65 1014.1
20260509114004 65 107 7.0 16.0 0.00 0.00 0.00 65 1014.0
20260509113503 65 109 8.0 17.0 0.00 0.00 0.00 65 1013.9
20260509113217 65 109 8.0 17.0 0.00 0.00 0.00 64 1014.0
20260509112504 65 107 8.0 15.0 0.00 0.00 0.00 65 1014.2
20260509112003 65 108 7.0 15.0 0.00 0.00 0.00 65 1014.2
20260509111503 65 103 7.0 13.0 0.00 0.00 0.00 69 1014.1
20260509111216 65 99 7.0 13.0 0.00 0.00 0.00 69 1014.0
20260509110503 64 104 8.0 17.0 0.00 0.00 0.00 70 1013.8
20260509110003 64 110 9.0 17.0 0.00 0.00 0.00 70 1013.9
20260509105503 64 112 9.0 16.0 0.00 0.00 0.00 70 1014.0
20260509105003 64 108 8.0 15.0 0.00 0.00 0.00 71 1014.0
20260509104717 65 105 8.0 17.0 0.00 0.00 0.00 72 1013.8
20260509104218 64 103 8.0 17.0 0.00 0.00 0.00 73 1013.9
20260509103503 64 112 9.0 15.0 0.00 0.00 0.00 73 1014.0
20260509103003 64 119 8.0 15.0 0.00 0.00 0.00 73 1014.1
20260509102503 65 106 7.0 16.0 0.00 0.00 0.00 68 1013.9
20260509102003 65 98 7.0 16.0 0.00 0.00 0.00 68 1013.9
20260509101503 65 95 7.0 15.0 0.00 0.00 0.00 67 1013.9
20260509101218 65 92 6.0 13.0 0.00 0.00 0.00 68 1013.8
20260509100503 65 90 6.0 11.0 0.00 0.00 0.00 66 1013.9
20260509100004 66 97 5.0 11.0 0.00 0.00 0.00 67 1013.9
20260509095503 66 106 4.0 11.0 0.00 0.00 0.00 66 1014.1
20260509095003 66 99 5.0 12.0 0.00 0.00 0.00 66 1013.7
20260509094717 65 74 5.0 12.0 0.00 0.00 0.00 67 1013.7
20260509094003 64 48 4.0 9.0 0.00 0.00 0.00 70 1013.7
20260509093503 64 54 4.0 8.0 0.00 0.00 0.00 71 1013.7
20260509093003 65 63 4.0 9.0 0.00 0.00 0.00 72 1013.7
20260509092503 65 71 4.0 9.0 0.00 0.00 0.00 72 1013.6
20260509092003 65 93 6.0 12.0 0.00 0.00 0.00 70 1013.5
20260509091503 65 104 6.0 13.0 0.00 0.00 0.00 71 1013.4
20260509091218 64 102 7.0 15.0 0.00 0.00 0.00 70 1013.4
20260509090503 64 98 6.0 15.0 0.00 0.00 0.00 71 1013.4
20260509090003 64 89 5.0 12.0 0.00 0.00 0.00 69 1013.5
20260509085503 64 83 5.0 14.0 0.00 0.00 0.00 68 1013.3
20260509085003 64 84 4.0 14.0 0.00 0.00 0.00 71 1013.3
20260509084717 64 89 3.0 14.0 0.00 0.00 0.00 72 1013.2
20260509084003 63 79 3.0 9.0 0.00 0.00 0.00 75 1013.2
20260509083503 63 83 4.0 9.0 0.00 0.00 0.00 75 1013.2
20260509083003 64 76 4.0 9.0 0.00 0.00 0.00 76 1013.3
20260509082503 64 87 5.0 11.0 0.00 0.00 0.00 76 1013.2
20260509082003 63 95 6.0 17.0 0.00 0.00 0.00 75 1013.3
20260509081503 63 99 6.0 17.0 0.00 0.00 0.00 75 1013.4
20260509081004 64 103 6.0 11.0 0.00 0.00 0.00 74 1013.4
20260509080503 63 102 6.0 11.0 0.00 0.00 0.00 74 1013.6
20260509080003 63 99 6.0 15.0 0.00 0.00 0.00 75 1013.4
20260509075503 63 97 6.0 15.0 0.00 0.00 0.00 75 1013.5